Retour au catalogue

STARLINK-33554

ActifCommunicationsVLEO
NORAD 62103·PAYLOAD·🇺🇸 United States

Lancé Nov 25, 2024 depuis Cape Canaveral Space Force Station

Loading…

Prochains Passages (prochaines 24 heures)

TLE

FraisSource: CelesTrak SupGP

Époque: Sep 14, 2026, 22:37 UTC

1 62103C 24220R   26257.94284722  .00005345  00000+0  19357-3 0  2573
2 62103  42.9997 216.4397 0001070 259.4304 275.4924 15.27577676    18

Suivez STARLINK-33554 en temps réel avec AllMySat

Download on the App Store